Flag for Mongolia Weather past 2 weeks in Ulaanbaatar, Mongolia

Now
72 °F

Thunderstorms. Scattered clouds.


Feels Like: 77 °F
Forecast: 54 / 90 °F
Wind: 8 mph from North

Location: Ulan-Bator

Current Time: Jul 5, 2015 at 5:44:48 PM

Latest Report: Jul 5, 2015 at 5:00 PM


Visibility: N/A

Pressure: 29.62 "Hg (25.49 "Hg at 1298m altitude)

Humidity: 50%

Dew point: 52 °F

Location of UlaanbaatarLocation

Historic Weather in Ulaanbaatar — Graph

°F

Ulaanbaatar temperature yesterday

Maximum temperature yesterday: 90 °F (at 5:30 PM)
Minimum temperature yesterday: 61 °F (at 5:00 AM)
Average temperature yesterday: 77 °F

Past Weeks' High & Low Weather Summary

 TemperatureHumidityPressure
High90 °F (Jun 26, 12:30 PM)88% (Jun 26, 10:30 PM)30.01 "Hg (Jun 26, 10:30 PM)
Low41 °F (Jun 29, 6:00 AM)9% (Jun 29, 7:30 PM)29.47 "Hg (Jun 26, 2:30 PM)
Average68 °F36%29.82 "Hg
* Reported Jun 20 4:00 PM — Jul 5 4:30 PM, Ulaanbaatar, Weather by CustomWeather, © 2015

Note: Actual official high and low records may vary slightly from our data, if they occured in-between our weather recording intervals... More about our weather records

Advertising

Ulaanbaatar weather history for previous 24 hours

 ConditionsComfort  
Time TempWeatherWind HumidityBarometerVisibility
4:30 PM
Sun, Jul 5
81 °FScattered clouds.22 mph32%29.62 "HgN/A
4:00 PM79 °FThunderstorms. Scattered clouds.24 mph37%29.62 "HgN/A
3:30 PM79 °FThunderstorms. Scattered clouds.24 mph39%29.62 "HgN/A
3:00 PM77 °FScattered clouds.24 mph44%29.65 "HgN/A
2:30 PM75 °FScattered clouds.22 mph44%29.65 "HgN/A
2:00 PM79 °FScattered clouds.17 mph39%29.68 "HgN/A
1:30 PM79 °FPartly sunny.15 mph42%29.68 "HgN/A
12:30 PM66 °FScattered clouds.10 mph68%29.71 "HgN/A
12:00 PM64 °FScattered clouds.8 mph68%29.71 "HgN/A
11:30 AM63 °FSprinkles. Scattered clouds.13 mph73%29.71 "HgN/A
11:00 AM66 °FSprinkles. Scattered clouds.3 mph68%29.71 "HgN/A
10:30 AM68 °FScattered clouds.13 mph56%29.71 "HgN/A
10:00 AM66 °FScattered clouds.10 mph64%29.71 "HgN/A
9:30 AM66 °FSprinkles. Scattered clouds.10 mph68%29.71 "HgN/A
9:00 AM68 °FSprinkles. Scattered clouds.8 mph56%29.71 "HgN/A
8:30 AM68 °FScattered clouds.10 mph56%29.71 "HgN/A
8:00 AM68 °FSprinkles. Scattered clouds.13 mph56%29.71 "HgN/A
7:30 AM66 °FSprinkles. Scattered clouds.15 mph60%29.71 "HgN/A
7:00 AM68 °FSprinkles. Scattered clouds.17 mph53%29.71 "HgN/A
6:30 AM68 °FPassing clouds.17 mph56%29.71 "HgN/A
6:00 AM66 °FSprinkles. Passing clouds.13 mph64%29.71 "HgN/A
5:30 AM66 °FSprinkles. Passing clouds.15 mph60%29.71 "HgN/A
5:00 AM72 °FPassing clouds.13 mph44%29.68 "HgN/A
4:30 AM70 °FPassing clouds.13 mph46%29.68 "HgN/A
4:00 AM70 °FPassing clouds.10 mph50%29.71 "HgN/A
3:30 AM70 °FPassing clouds.13 mph50%29.71 "HgN/A
3:00 AM70 °FPassing clouds.10 mph50%29.71 "HgN/A
2:30 AM70 °FPassing clouds.10 mph46%29.71 "HgN/A
2:00 AM70 °FPassing clouds.1 mph43%29.71 "HgN/A
1:30 AM73 °FPassing clouds.8 mph41%29.74 "HgN/A
1:00 AM75 °FPassing clouds.13 mph36%29.74 "HgN/A
12:30 AM75 °FPassing clouds.6 mph34%29.71 "HgN/A
12:00 AM75 °FPassing clouds.8 mph34%29.71 "HgN/A
11:30 PM
Sat, Jul 4
77 °FPassing clouds.8 mph30%29.74 "HgN/A
11:00 PM77 °FPassing clouds.10 mph34%29.71 "HgN/A
10:30 PM77 °FScattered clouds.17 mph32%29.71 "HgN/A
10:00 PM81 °FScattered clouds.20 mph21%29.68 "HgN/A
9:30 PM84 °FScattered clouds.22 mph18%29.68 "HgN/A
9:00 PM86 °FScattered clouds.17 mph15%29.65 "HgN/A
8:30 PM86 °FPartly sunny.17 mph15%29.65 "HgN/A
8:00 PM88 °FScattered clouds.20 mph15%29.65 "HgN/A
7:30 PM88 °FScattered clouds.17 mph15%29.65 "HgN/A
7:00 PM90 °FScattered clouds.15 mph14%29.65 "HgN/A
6:30 PM88 °FPartly sunny.15 mph15%29.65 "HgN/A
6:00 PM90 °FPartly sunny.17 mph14%29.65 "HgN/A
5:30 PM90 °FPartly sunny.17 mph14%29.65 "HgN/A
5:00 PM88 °FPartly sunny.13 mph16%29.68 "HgN/A
Weather by CustomWeather, © 2015

See weather overviewHow to use our weather pages